[[{"header":{"parameterUnit":"m.s-1","parameterCategory":1,"la1":30.2992,"la2":30.254,"lo1":-89.0895,"lo2":-89.0443,"dy":0.0025,"dx":0.0025,"nx":19,"ny":19,"refTime":"2026-05-07T09:00:00:Z","depth":0,"parameterNumber":2,"parameterNumberName":"U-component_of_WINDS"},"data":[0,0,0,0.77,0.7699,0.7676,0.7676,0.7644,0.7644,0,0,0,0,0,0,0,0,0,0,0,0.7706,0.7706,0.77,0.7699,0.7676,0.7676,0.7644,0.7644,0,0,0,0,0,0,0,0,0,0,0,0.7706,0.7706,0.7706,0.7699,0.7676,0.7676,0.7644,0.7662,0,0,0,0,0,0,0,0,0,0,0.7685,0.7691,0.7706,0.7706,0.7699,0.7676,0.7676,0.7663,0.7661,0.7654,0,0.7648,0,0.7645,0.7642,0.7642,0,0,0,0.77,0.7693,0.7687,0.7706,0.7699,0.7676,0.7687,0.7662,0.766,0.7651,0.7648,0.7646,0.7645,0.7642,0.7641,0.7599,0.7598,0,0,0.7701,0.7702,0.7688,0.7685,0.7689,0.7687,0.7686,0.7661,0.7657,0.7648,0.7646,0.7644,0.7641,0.7641,0.7599,0.7598,0,0,0,0.7704,0.7703,0.7697,0.7686,0.7682,0.7687,0.7685,0.7658,0.7656,0.7645,0.7644,0.7641,0.7641,0.7599,0.7599,0.7588,0,0,0,0.7705,0.7705,0.7698,0.7698,0.7683,0.767,0.7682,0.7658,0.7655,0.7644,0.7641,0.764,0.7599,0.7599,0.7589,0.7582,0,0,0,0.7708,0.7705,0.7701,0.7698,0.7688,0.767,0.7667,0.7657,0.7654,0.7642,0.764,0.7599,0.7599,0.7589,0.7584,0.757,0,0,0,0.7711,0.7693,0.7701,0.768,0.7688,0.7664,0.7667,0.7649,0.7638,0.7641,0.7599,0.7599,0.759,0.7584,0.7571,0.7558,0.7553,0,0,0.7689,0.769,0.7678,0.7685,0.7659,0.7668,0.764,0.7629,0.7627,0.7608,0.7607,0.7588,0.7584,0.757,0.7527,0.7524,0,0,0,0.7671,0.7662,0.7655,0.7644,0.7634,0.7625,0.7618,0.7613,0.7597,0.7618,0.7581,0.7578,0.757,0.7563,0.756,0.7552,0.7596,0.7596,0.7596,0.764,0.7639,0.7617,0.7612,0.7601,0.7593,0.7583,0.7576,0.7578,0.7569,0.7563,0.7537,0.753,0.7528,0.752,0.7557,0.7557,0.7557,0.7557,0.7606,0.7593,0.7595,0.7575,0.7573,0.7556,0.7547,0.7549,0.7532,0.7542,0.7535,0.7545,0.7524,0.7516,0.7556,0.7557,0.7557,0.7557,0.7557,0.7585,0.7578,0.7573,0.7555,0.7541,0.7537,0.752,0.7519,0.7518,0.7511,0.7504,0.7504,0.7502,0.7508,0.7508,0.7508,0.7508,0.7508,0.7507,0.7565,0.7559,0.7545,0.7533,0.7524,0.7513,0.7504,0.7495,0.7486,0.7486,0.7486,0.7488,0.7522,0.753,0.7506,0.7506,0.7506,0.7507,0.7507,0.7529,0.7536,0.7515,0.7507,0.7491,0.7476,0.7475,0.7458,0.7451,0.7442,0.7445,0.7471,0.7473,0.7476,0.7482,0.7447,0.7447,0.7447,0.7447,0.751,0.7511,0.7488,0.7474,0.746,0.7456,0.7431,0.7423,0.7416,0.7411,0.7416,0.7425,0.7428,0.7428,0.7431,0.7437,0.7391,0.7391,0.7391,0.7487,0.7486,0.7465,0.7458,0.7445,0.7434,0.7409,0.7392,0.7386,0.7389,0.7407,0.7409,0.7423,0.7428,0.7431,0.7436,0.7447,0,0]},{"header":{"parameterUnit":"m.s-1","parameterCategory":1,"la1":30.2992,"la2":30.254,"lo1":-89.0895,"lo2":-89.0443,"dy":0.0025,"dx":0.0025,"nx":19,"ny":19,"refTime":"2026-05-07T09:00:00:Z","depth":0,"parameterNumber":3,"parameterNumberName":"V-component_of_WINDS"},"data":[0,0,0,-1.3717,-1.3718,-1.3771,-1.3771,-1.3836,-1.3837,0,0,0,0,0,0,0,0,0,0,0,-1.3698,-1.3698,-1.3717,-1.3718,-1.3771,-1.3771,-1.3836,-1.3837,0,0,0,0,0,0,0,0,0,0,0,-1.3698,-1.3698,-1.3698,-1.3718,-1.3771,-1.3771,-1.3836,-1.3797,0,0,0,0,0,0,0,0,0,0,-1.3747,-1.3724,-1.3698,-1.3698,-1.3719,-1.3771,-1.3771,-1.3796,-1.38,-1.3811,0,-1.3817,0,-1.3828,-1.3841,-1.3841,0,0,0,-1.3721,-1.3721,-1.3739,-1.3698,-1.3719,-1.3771,-1.3748,-1.3798,-1.3803,-1.3816,-1.3818,-1.3821,-1.3829,-1.3841,-1.3841,-1.3895,-1.3895,0,0,-1.3718,-1.3705,-1.3735,-1.3742,-1.3731,-1.3746,-1.3749,-1.3801,-1.3803,-1.3819,-1.3823,-1.383,-1.3841,-1.3842,-1.3895,-1.3895,0,0,0,-1.3708,-1.3703,-1.372,-1.3739,-1.3748,-1.3748,-1.3751,-1.38,-1.3807,-1.3823,-1.3831,-1.3842,-1.3843,-1.3895,-1.3895,-1.3891,0,0,0,-1.3706,-1.3697,-1.3718,-1.371,-1.3747,-1.3774,-1.375,-1.3804,-1.381,-1.3831,-1.3842,-1.3843,-1.3895,-1.3895,-1.3891,-1.3891,0,0,0,-1.3696,-1.3696,-1.3702,-1.371,-1.3732,-1.3774,-1.3784,-1.3805,-1.3814,-1.3841,-1.3843,-1.3895,-1.3895,-1.389,-1.389,-1.3905,0,0,0,-1.368,-1.3693,-1.3701,-1.372,-1.3731,-1.377,-1.3783,-1.3813,-1.3834,-1.3842,-1.3895,-1.3895,-1.389,-1.389,-1.3904,-1.3916,-1.3918,0,0,-1.3689,-1.3694,-1.3706,-1.3715,-1.375,-1.3763,-1.3798,-1.3829,-1.3843,-1.3878,-1.3879,-1.3891,-1.389,-1.3905,-1.3935,-1.3937,0,0,0,-1.3705,-1.3714,-1.3726,-1.3747,-1.3774,-1.3798,-1.3826,-1.384,-1.3871,-1.3858,-1.3899,-1.3899,-1.3908,-1.3914,-1.3916,-1.3927,-1.3897,-1.3897,-1.3897,-1.3697,-1.3719,-1.3743,-1.3771,-1.3792,-1.3825,-1.3846,-1.387,-1.388,-1.3891,-1.3901,-1.3917,-1.3923,-1.3925,-1.3936,-1.3907,-1.3907,-1.3907,-1.3907,-1.3716,-1.3734,-1.3755,-1.3786,-1.3809,-1.3836,-1.3871,-1.3879,-1.391,-1.3909,-1.3918,-1.3916,-1.3927,-1.3938,-1.3907,-1.3907,-1.3907,-1.3907,-1.3907,-1.3715,-1.3728,-1.3746,-1.3784,-1.3813,-1.3842,-1.3873,-1.3892,-1.391,-1.3918,-1.3935,-1.3936,-1.3941,-1.3925,-1.3925,-1.3925,-1.3925,-1.3925,-1.3925,-1.3707,-1.3728,-1.3751,-1.3786,-1.3807,-1.3836,-1.3875,-1.3896,-1.3925,-1.3937,-1.3937,-1.3952,-1.3923,-1.3917,-1.3926,-1.3926,-1.3926,-1.3926,-1.3926,-1.3721,-1.3723,-1.3758,-1.378,-1.3827,-1.3858,-1.3883,-1.3927,-1.3947,-1.3964,-1.3978,-1.3952,-1.3958,-1.3956,-1.3952,-1.397,-1.397,-1.397,-1.397,-1.3722,-1.3728,-1.3773,-1.3807,-1.3843,-1.3872,-1.3918,-1.3952,-1.3986,-1.4001,-1.4002,-1.3997,-1.3995,-1.4002,-1.3999,-1.3996,-1.4024,-1.4025,-1.4025,-1.3734,-1.3746,-1.3779,-1.3814,-1.3854,-1.389,-1.3936,-1.3977,-1.4015,-1.4027,-1.4015,-1.4013,-1.4005,-1.4001,-1.4011,-1.4007,-1.4001,0,0]}]]